Flag for U.S.A. Weather past 2 weeks in Bowling Green, Kentucky, U.S.A.

Now
49 °F

Clear.


Feels Like: 49 °F
Forecast: 51 / 68 °F
Wind: No wind

Location: Glasgow Municipal Airport

Current Time: Sep 22, 2014 at 5:18:54 AM

Latest Report: Sep 22, 2014 at 4:55 AM


Visibility: 10 mi

Pressure: 30.14 "Hg

Humidity: 100%

Dew point: 49 °F

Location of Bowling GreenLocation

Historic Weather in Bowling Green — Graph

°F

Bowling Green temperature yesterday

Maximum temperature yesterday: 82 °F (at 3:15 PM)
Minimum temperature yesterday: 59 °F (at 11:55 PM)
Average temperature yesterday: 70 °F

Past Weeks' High & Low Weather Summary

 TemperatureHumidityPressure
High84 °F (Sep 10, 2:55 PM)100% (Sep 7, 7:15 AM)30.28 "Hg (Sep 7, 7:15 AM)
Low48 °F (Sep 14, 4:55 AM)29% (Sep 21, 4:55 PM)29.85 "Hg (Sep 10, 6:55 PM)
Average66 °F80%30.08 "Hg
* Reported Sep 7 4:15 AM — Sep 22 4:15 AM, Bowling Green, Weather by CustomWeather, © 2014

Note: Actual official high and low records may vary slightly from our data, if they occured in-between our weather recording intervals... More about our weather records

Advertising

Bowling Green weather history for previous 24 hours

 ConditionsComfort  
Time TempWeatherWind HumidityBarometerVisibility
4:15 AM
Sep 22
50 °FClear.No wind100%30.12 "Hg10 mi
3:55 AM50 °FClear.No wind100%30.11 "Hg10 mi
3:35 AM50 °FClear.No wind100%30.11 "Hg10 mi
3:15 AM51 °FClear.No wind98%30.11 "Hg10 mi
2:55 AM52 °FClear.No wind97%30.10 "Hg10 mi
2:35 AM53 °FClear.No wind95%30.10 "Hg10 mi
2:15 AM53 °FClear.No wind94%30.09 "Hg10 mi
1:55 AM54 °FClear.No wind86%30.10 "Hg10 mi
1:35 AM55 °FClear.No wind81%30.10 "Hg10 mi
1:15 AM56 °FClear.No wind79%30.09 "Hg10 mi
12:55 AM57 °FClear.No wind77%30.09 "Hg10 mi
12:35 AM58 °FClear.No wind76%30.08 "Hg10 mi
12:15 AM58 °FClear.3 mph74%30.08 "Hg10 mi
11:55 PM
Sep 21
59 °FClear.3 mph73%30.07 "Hg10 mi
11:35 PM60 °FClear.5 mph68%30.07 "Hg10 mi
11:15 PM61 °FClear.5 mph66%30.07 "Hg10 mi
10:55 PM62 °FClear.8 mph64%30.07 "Hg10 mi
10:35 PM62 °FClear.9 mph64%30.06 "Hg10 mi
10:15 PM62 °FClear.7 mph64%30.05 "Hg10 mi
9:55 PM62 °FClear.No wind62%30.04 "Hg10 mi
9:35 PM61 °FClear.3 mph66%30.04 "Hg10 mi
9:15 PM60 °FClear.No wind70%30.03 "Hg10 mi
8:55 PM60 °FClear.No wind70%30.02 "Hg10 mi
8:35 PM60 °FClear.No wind69%30.01 "Hg10 mi
8:15 PM61 °FClear.No wind67%30.01 "Hg10 mi
7:55 PM63 °FClear.No wind61%30.00 "Hg10 mi
7:15 PM67 °FSunny.No wind52%29.98 "Hg10 mi
6:55 PM69 °FSunny.3 mph47%29.97 "Hg10 mi
6:35 PM71 °FSunny.3 mph42%29.96 "Hg10 mi
6:15 PM74 °FSunny.7 mph37%29.96 "Hg10 mi
5:55 PM76 °FSunny.6 mph34%29.95 "Hg10 mi
5:35 PM77 °FSunny.8 mph30%29.95 "Hg10 mi
5:15 PM78 °FSunny.7 mph29%29.94 "Hg10 mi
4:55 PM80 °FSunny.9 mph29%29.93 "Hg10 mi
4:35 PM80 °FSunny.10 mph32%29.92 "Hg10 mi
4:15 PM81 °FSunny.8 mph41%29.91 "Hg10 mi
3:55 PM82 °FScattered clouds.12 mph42%29.91 "Hg10 mi
3:15 PM82 °FScattered clouds.8 mph51%29.91 "Hg10 mi
2:55 PM82 °FScattered clouds.12 mph54%29.91 "Hg10 mi
2:35 PM81 °FScattered clouds.10 mph57%29.91 "Hg10 mi
2:15 PM80 °FScattered clouds.10 mph64%29.91 "Hg10 mi
1:15 PM81 °FScattered clouds.8 mph61%29.93 "Hg10 mi
12:55 PM80 °FPartly sunny.10 mph64%29.94 "Hg10 mi
12:35 PM79 °FScattered clouds.7 mph67%29.95 "Hg10 mi
12:15 PM77 °FScattered clouds.12 mph71%29.95 "Hg10 mi
11:55 AM75 °FPartly sunny.9 mph77%29.95 "Hg10 mi
11:35 AM74 °FOvercast.12 mph79%29.96 "Hg10 mi
11:15 AM73 °FOvercast.8 mph80%29.96 "Hg10 mi
10:55 AM74 °FOvercast.9 mph79%29.96 "Hg10 mi
10:35 AM73 °FCloudy.9 mph79%29.96 "Hg10 mi
10:15 AM73 °FPartly sunny.8 mph80%29.95 "Hg10 mi
9:55 AM72 °FScattered clouds.9 mph83%29.95 "Hg10 mi
9:15 AM70 °FLight rain. Mostly cloudy.7 mph91%29.96 "Hg10 mi
8:55 AM70 °FMostly cloudy.8 mph88%29.96 "Hg10 mi
8:35 AM70 °FMostly cloudy.8 mph89%29.95 "Hg10 mi
8:15 AM69 °FOvercast.7 mph91%29.94 "Hg10 mi
7:55 AM69 °FBroken clouds.6 mph93%29.94 "Hg10 mi
7:35 AM68 °FSunny.6 mph93%29.93 "Hg10 mi
7:15 AM68 °FClear.5 mph93%29.94 "Hg10 mi
6:55 AM67 °FClear.6 mph98%29.94 "Hg10 mi
6:35 AM66 °FPassing clouds.No wind99%29.95 "Hg7 mi
6:15 AM65 °FPassing clouds.No wind100%29.95 "Hg7 mi
5:55 AM65 °FPassing clouds.No wind100%29.94 "Hg7 mi
5:35 AM65 °FClear.No wind100%29.93 "Hg7 mi
5:15 AM65 °FClear.No wind100%29.94 "Hg7 mi
Weather by CustomWeather, © 2014

See weather overviewHow to use our weather pages